SWR221C LFML-LSZH

Flight info

Callsign SWR221C
Flight time 0h 59m
Altitude 36000
Route ETREK DCT LUXAN DCT LTP DCT SOPLO DCT OMASI DCT KINNI DCT SOSAL DCT KORED N871 BERSU
Aircraft A320/M-SDE3FGHIRWY/LB1

Departure

Time 2026-05-05 18:03
Airport Marseille Provence Airport (LFML)

Arrival

Time 2026-05-05 19:02
Airport Zürich Airport (LSZH)
Time Latitude Longitude Altitude Speed Heading
2026-05-05 17:33 43.43977 5.22217 42 ft 0 kts 62°
2026-05-05 17:51 43.43977 5.22216 42 ft 1 kts 61°
2026-05-05 17:52 43.43966 5.22187 41 ft 4 kts 59°
2026-05-05 17:52 43.43951 5.22157 39 ft 4 kts 41°
2026-05-05 17:52 43.43929 5.22140 41 ft 4 kts
2026-05-05 17:52 43.43910 5.22148 40 ft 1 kts 314°
2026-05-05 17:53 43.43907 5.22152 40 ft 1 kts 314°
2026-05-05 17:55 43.43911 5.22146 41 ft 2 kts 314°
2026-05-05 17:56 43.43922 5.22131 40 ft 3 kts 314°
2026-05-05 17:56 43.43935 5.22112 41 ft 3 kts 314°
2026-05-05 17:56 43.43958 5.22079 40 ft 9 kts 314°
2026-05-05 17:56 43.44029 5.21980 37 ft 18 kts 316°
2026-05-05 17:57 43.44109 5.21853 34 ft 16 kts 287°
2026-05-05 17:57 43.44052 5.21733 33 ft 17 kts 223°
2026-05-05 17:57 43.43964 5.21616 34 ft 19 kts 223°
2026-05-05 17:57 43.43931 5.21467 31 ft 16 kts 309°
2026-05-05 17:58 43.43986 5.21393 30 ft 11 kts 312°
2026-05-05 17:58 43.44040 5.21314 28 ft 12 kts 315°
2026-05-05 17:58 43.44100 5.21231 29 ft 13 kts 315°
2026-05-05 17:58 43.44162 5.21139 23 ft 13 kts 301°
2026-05-05 17:59 43.44147 5.21039 22 ft 6 kts 239°
2026-05-05 17:59 43.44144 5.21030 22 ft 0 kts 241°
2026-05-05 18:01 43.44139 5.21017 24 ft 7 kts 241°
2026-05-05 18:01 43.44089 5.20923 20 ft 13 kts 193°
2026-05-05 18:02 43.44049 5.20963 22 ft 0 kts 133°
2026-05-05 18:02 43.44047 5.20967 22 ft 4 kts 133°
2026-05-05 18:02 43.43908 5.21161 28 ft 64 kts 135°
2026-05-05 18:03 43.43432 5.21840 47 ft 130 kts 134°
2026-05-05 18:03 43.42707 5.22851 385 ft 153 kts 138°
2026-05-05 18:03 43.42158 5.24020 1071 ft 159 kts 106°
2026-05-05 18:03 43.42221 5.25586 1570 ft 179 kts 67°
2026-05-05 18:04 43.43087 5.26953 1947 ft 204 kts 41°
2026-05-05 18:04 43.44372 5.27976 2380 ft 223 kts 20°
2026-05-05 18:04 43.45921 5.28360 3054 ft 230 kts 360°
2026-05-05 18:04 43.47509 5.28029 3835 ft 232 kts 341°
2026-05-05 18:05 43.49060 5.27358 4659 ft 235 kts 341°
2026-05-05 18:05 43.50624 5.26694 5442 ft 237 kts 341°
2026-05-05 18:05 43.52210 5.26025 6253 ft 240 kts 341°
2026-05-05 18:05 43.53816 5.25345 6990 ft 243 kts 341°
2026-05-05 18:06 43.55441 5.24657 7744 ft 246 kts 340°
2026-05-05 18:06 43.56529 5.24195 8268 ft 248 kts 340°
2026-05-05 18:06 43.58747 5.23248 9289 ft 253 kts 339°
2026-05-05 18:06 43.60490 5.22477 9742 ft 275 kts 339°
2026-05-05 18:07 43.62392 5.21613 10106 ft 299 kts 339°
2026-05-05 18:07 43.64447 5.20675 10421 ft 323 kts 339°
2026-05-05 18:07 43.66620 5.19684 10846 ft 341 kts 339°
2026-05-05 18:07 43.68932 5.18641 11583 ft 348 kts 339°
2026-05-05 18:08 43.71221 5.17615 12344 ft 353 kts 338°
2026-05-05 18:08 43.73564 5.16547 13145 ft 357 kts 338°
2026-05-05 18:08 43.75928 5.15440 13914 ft 361 kts 337°
2026-05-05 18:08 43.78315 5.14305 14600 ft 365 kts 337°
2026-05-05 18:09 43.80741 5.13185 15294 ft 371 kts 341°
2026-05-05 18:09 43.83336 5.12804 15950 ft 382 kts
2026-05-05 18:09 43.85993 5.13212 16589 ft 386 kts
2026-05-05 18:09 43.88672 5.13695 17261 ft 390 kts
2026-05-05 18:10 43.91378 5.14207 17932 ft 395 kts
2026-05-05 18:10 43.94111 5.14730 18554 ft 398 kts
2026-05-05 18:10 43.96866 5.15253 19152 ft 401 kts
2026-05-05 18:10 43.99649 5.15773 19735 ft 404 kts
2026-05-05 18:11 44.02452 5.16288 20328 ft 408 kts
2026-05-05 18:11 44.05270 5.16803 20931 ft 411 kts
2026-05-05 18:11 44.08117 5.17326 21533 ft 414 kts
2026-05-05 18:11 44.10991 5.17856 22111 ft 418 kts
2026-05-05 18:12 44.13847 5.18382 22679 ft 422 kts
2026-05-05 18:12 44.16769 5.18920 23254 ft 425 kts
2026-05-05 18:12 44.19720 5.19462 23748 ft 429 kts
2026-05-05 18:12 44.22689 5.20009 24170 ft 433 kts
2026-05-05 18:13 44.25699 5.20567 24610 ft 438 kts
2026-05-05 18:13 44.28736 5.21133 25019 ft 442 kts
2026-05-05 18:13 44.31797 5.21702 25427 ft 446 kts
2026-05-05 18:13 44.34868 5.22482 25814 ft 453 kts 14°
2026-05-05 18:14 44.37892 5.23846 26207 ft 458 kts 16°
2026-05-05 18:14 44.40925 5.25258 26586 ft 462 kts 16°
2026-05-05 18:14 44.43981 5.26700 26951 ft 465 kts 16°
2026-05-05 18:14 44.47064 5.28163 27327 ft 469 kts 16°
2026-05-05 18:15 44.50172 5.29635 27677 ft 473 kts 16°
2026-05-05 18:15 44.53300 5.31117 28059 ft 476 kts 15°
2026-05-05 18:15 44.56451 5.32604 28399 ft 479 kts 15°
2026-05-05 18:15 44.59575 5.34076 28750 ft 483 kts 15°
2026-05-05 18:16 44.62761 5.35580 29331 ft 478 kts 15°
2026-05-05 18:16 44.65867 5.37053 30283 ft 468 kts 15°
2026-05-05 18:16 44.68962 5.38517 30729 ft 469 kts 14°
2026-05-05 18:16 44.72044 5.39969 31275 ft 464 kts 14°
2026-05-05 18:17 44.75098 5.41411 31826 ft 462 kts 15°
2026-05-05 18:17 44.78127 5.42849 32388 ft 460 kts 14°
2026-05-05 18:17 44.81156 5.44290 32858 ft 459 kts 14°
2026-05-05 18:17 44.84180 5.45730 33330 ft 458 kts 14°
2026-05-05 18:18 44.87203 5.47169 33748 ft 458 kts 13°
2026-05-05 18:18 44.90216 5.48606 34128 ft 457 kts 14°
2026-05-05 18:18 44.93225 5.50045 34514 ft 456 kts 14°
2026-05-05 18:18 44.96223 5.51483 34917 ft 453 kts 14°
2026-05-05 18:19 44.99205 5.52916 35319 ft 451 kts 14°
2026-05-05 18:19 45.02181 5.54342 35608 ft 452 kts 14°
2026-05-05 18:19 45.05156 5.55768 35930 ft 451 kts 15°
2026-05-05 18:19 45.08125 5.57189 36278 ft 449 kts 15°
2026-05-05 18:20 45.11082 5.58603 36628 ft 448 kts 15°
2026-05-05 18:20 45.14033 5.60016 36940 ft 447 kts 15°
2026-05-05 18:20 45.16974 5.61430 37194 ft 447 kts 15°
2026-05-05 18:20 45.19920 5.62851 37465 ft 447 kts 16°
2026-05-05 18:21 45.22819 5.64253 37737 ft 446 kts 16°
2026-05-05 18:21 45.25758 5.65669 37870 ft 449 kts 16°
2026-05-05 18:21 45.28735 5.67103 37902 ft 455 kts 16°
2026-05-05 18:22 45.34812 5.70043 37892 ft 467 kts 17°
2026-05-05 18:22 45.41031 5.73074 37889 ft 477 kts 17°
2026-05-05 18:23 45.47337 5.76144 37895 ft 480 kts 17°
2026-05-05 18:23 45.53661 5.79228 37900 ft 480 kts 17°
2026-05-05 18:24 45.59986 5.82332 37892 ft 481 kts 17°
2026-05-05 18:24 45.66321 5.85442 37890 ft 482 kts 17°
2026-05-05 18:25 45.72637 5.88542 37899 ft 483 kts 17°
2026-05-05 18:25 45.78995 5.91674 37898 ft 483 kts 17°
2026-05-05 18:26 45.85336 5.94802 37908 ft 484 kts 17°
2026-05-05 18:26 45.91423 5.98911 37901 ft 486 kts 34°
2026-05-05 18:27 45.96582 6.05169 37899 ft 486 kts 42°
2026-05-05 18:27 46.01404 6.11430 37897 ft 486 kts 42°
2026-05-05 18:28 46.08928 6.21216 37921 ft 485 kts 42°
2026-05-05 18:28 46.13813 6.27917 37922 ft 484 kts 44°
2026-05-05 18:29 46.18565 6.34797 37787 ft 484 kts 45°
2026-05-05 18:29 46.20937 6.38249 37300 ft 483 kts 45°
2026-05-05 18:29 46.23307 6.41679 36823 ft 482 kts 45°
2026-05-05 18:30 46.25410 6.44701 36415 ft 483 kts 45°
2026-05-05 18:30 46.27799 6.48115 35965 ft 484 kts 44°
2026-05-05 18:30 46.30202 6.51540 35518 ft 486 kts 44°
2026-05-05 18:30 46.32613 6.54973 35079 ft 487 kts 44°
2026-05-05 18:31 46.35030 6.58418 34657 ft 488 kts 44°
2026-05-05 18:31 46.37405 6.61817 34247 ft 486 kts 45°
2026-05-05 18:31 46.39830 6.65302 33801 ft 484 kts 45°
2026-05-05 18:31 46.42179 6.68693 33312 ft 481 kts 45°
2026-05-05 18:32 46.44534 6.72103 32824 ft 476 kts 45°
2026-05-05 18:32 46.46869 6.75484 32344 ft 472 kts 45°
2026-05-05 18:32 46.49181 6.78833 31876 ft 467 kts 45°
2026-05-05 18:32 46.51465 6.82144 31411 ft 462 kts 45°
2026-05-05 18:33 46.53730 6.85430 30957 ft 458 kts 45°
2026-05-05 18:33 46.55943 6.88733 30506 ft 453 kts 50°
2026-05-05 18:33 46.57940 6.92249 30063 ft 449 kts 52°
2026-05-05 18:33 46.59897 6.95759 29567 ft 444 kts 52°
2026-05-05 18:34 46.61827 6.99234 29054 ft 440 kts 52°
2026-05-05 18:34 46.63743 7.02688 28553 ft 436 kts 52°
2026-05-05 18:34 46.65641 7.06112 28057 ft 432 kts 52°
2026-05-05 18:34 46.67516 7.09501 27578 ft 428 kts 52°
2026-05-05 18:35 46.69377 7.12869 27125 ft 424 kts 52°
2026-05-05 18:35 46.71215 7.16205 26723 ft 420 kts 52°
2026-05-05 18:35 46.73041 7.19519 26341 ft 417 kts 52°
2026-05-05 18:35 46.74850 7.22800 25965 ft 414 kts 52°
2026-05-05 18:36 46.76647 7.26060 25587 ft 411 kts 52°
2026-05-05 18:36 46.78431 7.29302 25212 ft 408 kts 52°
2026-05-05 18:36 46.79605 7.31441 24968 ft 406 kts 52°
2026-05-05 18:36 46.81362 7.34651 24599 ft 403 kts 52°
2026-05-05 18:37 46.83667 7.38873 24117 ft 400 kts 52°
2026-05-05 18:37 46.85398 7.42038 23766 ft 397 kts 52°
2026-05-05 18:37 46.87118 7.45181 23410 ft 395 kts 52°
2026-05-05 18:37 46.88823 7.48306 22995 ft 392 kts 52°
2026-05-05 18:38 46.89970 7.50413 22718 ft 390 kts 52°
2026-05-05 18:38 46.91653 7.53516 22307 ft 388 kts 52°
2026-05-05 18:38 46.93320 7.56598 21908 ft 386 kts 53°
2026-05-05 18:38 46.94972 7.59655 21511 ft 383 kts 52°
2026-05-05 18:39 46.96632 7.62727 21115 ft 381 kts 52°
2026-05-05 18:39 46.98276 7.65766 20732 ft 379 kts 52°
2026-05-05 18:39 46.99886 7.68747 20358 ft 377 kts 52°
2026-05-05 18:39 47.01511 7.71751 19986 ft 375 kts 52°
2026-05-05 18:40 47.03131 7.74743 19616 ft 373 kts 52°
2026-05-05 18:40 47.04740 7.77715 19242 ft 371 kts 52°
2026-05-05 18:40 47.06339 7.80673 18886 ft 369 kts 52°
2026-05-05 18:40 47.07925 7.83616 18521 ft 367 kts 52°
2026-05-05 18:41 47.09505 7.86561 18177 ft 365 kts 52°
2026-05-05 18:41 47.11070 7.89482 17774 ft 363 kts 52°
2026-05-05 18:41 47.12627 7.92399 17371 ft 362 kts 53°
2026-05-05 18:41 47.13979 7.95494 16972 ft 359 kts 63°
2026-05-05 18:42 47.15052 7.98797 16580 ft 357 kts 66°
2026-05-05 18:42 47.16099 8.02093 16194 ft 356 kts 66°
2026-05-05 18:42 47.17145 8.05376 15809 ft 354 kts 66°
2026-05-05 18:42 47.17488 8.06446 15684 ft 354 kts 66°
2026-05-05 18:43 47.18050 8.08208 15489 ft 353 kts 66°
2026-05-05 18:43 47.19091 8.11471 15108 ft 351 kts 66°
2026-05-05 18:43 47.20151 8.14699 14741 ft 350 kts 60°
2026-05-05 18:43 47.21624 8.17447 14471 ft 347 kts 41°
2026-05-05 18:44 47.23608 8.19412 14225 ft 344 kts 22°
2026-05-05 18:44 47.25878 8.20374 14003 ft 337 kts
2026-05-05 18:44 47.28166 8.20269 13894 ft 321 kts 344°
2026-05-05 18:44 47.30242 8.19245 13919 ft 311 kts 329°
2026-05-05 18:45 47.32173 8.17811 13919 ft 311 kts 328°
2026-05-05 18:45 47.34106 8.16367 13914 ft 311 kts 328°
2026-05-05 18:45 47.36035 8.14925 13910 ft 311 kts 328°
2026-05-05 18:45 47.37965 8.13484 13899 ft 312 kts 328°
2026-05-05 18:46 47.39882 8.12061 13893 ft 301 kts 328°
2026-05-05 18:46 47.41744 8.10677 13573 ft 300 kts 328°
2026-05-05 18:46 47.43611 8.09283 13166 ft 300 kts 328°
2026-05-05 18:46 47.45467 8.07891 12769 ft 295 kts 328°
2026-05-05 18:47 47.47239 8.06537 12506 ft 277 kts 322°
2026-05-05 18:47 47.48640 8.04777 12252 ft 255 kts 303°
2026-05-05 18:47 47.49527 8.02641 11988 ft 235 kts 286°
2026-05-05 18:47 47.49924 8.00368 11741 ft 225 kts 270°
2026-05-05 18:48 47.49867 7.98094 11479 ft 219 kts 257°
2026-05-05 18:48 47.49618 7.95863 11237 ft 219 kts 257°
2026-05-05 18:48 47.49368 7.93645 10981 ft 217 kts 257°
2026-05-05 18:48 47.49121 7.91453 10732 ft 215 kts 257°
2026-05-05 18:49 47.48830 7.89293 10486 ft 212 kts 250°
2026-05-05 18:49 47.48217 7.87331 10237 ft 210 kts 235°
2026-05-05 18:49 47.47245 7.85743 9993 ft 209 kts 219°
2026-05-05 18:49 47.45986 7.84679 9893 ft 211 kts 203°
2026-05-05 18:50 47.44537 7.84228 9890 ft 217 kts 187°
2026-05-05 18:50 47.43037 7.84471 9891 ft 225 kts 169°
2026-05-05 18:50 47.41602 7.85477 9894 ft 233 kts 150°
2026-05-05 18:50 47.40441 7.87200 9893 ft 243 kts 130°
2026-05-05 18:51 47.39734 7.89509 9900 ft 253 kts 108°
2026-05-05 18:51 47.39645 7.92131 9898 ft 261 kts 84°
2026-05-05 18:51 47.40244 7.94664 9908 ft 265 kts 59°
2026-05-05 18:51 47.41458 7.96688 9870 ft 266 kts 35°
2026-05-05 18:52 47.43090 7.97887 9540 ft 260 kts 11°
2026-05-05 18:52 47.44856 7.98779 9206 ft 277 kts 27°
2026-05-05 18:52 47.46268 8.00687 8900 ft 278 kts 58°
2026-05-05 18:52 47.46963 8.03313 8607 ft 274 kts 80°
2026-05-05 18:53 47.47310 8.06066 8352 ft 273 kts 83°
2026-05-05 18:53 47.47612 8.08831 8094 ft 272 kts 83°
2026-05-05 18:53 47.47902 8.11582 7919 ft 271 kts 83°
2026-05-05 18:53 47.48187 8.14331 7898 ft 270 kts 83°
2026-05-05 18:54 47.48469 8.17078 7903 ft 271 kts 83°
2026-05-05 18:54 47.48750 8.19828 7901 ft 270 kts 84°
2026-05-05 18:54 47.49032 8.22566 7891 ft 266 kts 84°
2026-05-05 18:54 47.49347 8.25175 7891 ft 252 kts 72°
2026-05-05 18:55 47.50243 8.27317 7893 ft 248 kts 39°
2026-05-05 18:55 47.51727 8.28483 7890 ft 242 kts
2026-05-05 18:55 47.53353 8.28388 7634 ft 228 kts 333°
2026-05-05 18:55 47.54585 8.27102 7392 ft 212 kts 302°
2026-05-05 18:56 47.55436 8.25322 7133 ft 213 kts 304°
2026-05-05 18:56 47.56689 8.24104 6885 ft 225 kts 339°
2026-05-05 18:56 47.58278 8.24107 6628 ft 237 kts 12°
2026-05-05 18:56 47.59712 8.25390 6198 ft 250 kts 46°
2026-05-05 18:57 47.60680 8.27571 5743 ft 254 kts 61°
2026-05-05 18:57 47.61403 8.29896 5416 ft 245 kts 76°
2026-05-05 18:57 47.61519 8.32338 5171 ft 231 kts 98°
2026-05-05 18:57 47.61184 8.34549 5007 ft 214 kts 114°
2026-05-05 18:58 47.60512 8.36470 4749 ft 206 kts 129°
2026-05-05 18:58 47.59586 8.38011 4494 ft 197 kts 142°
2026-05-05 18:58 47.58582 8.39388 4231 ft 195 kts 142°
2026-05-05 18:58 47.57606 8.40732 3970 ft 188 kts 142°
2026-05-05 18:59 47.56680 8.42004 3725 ft 180 kts 142°
2026-05-05 18:59 47.55784 8.43235 3496 ft 170 kts 141°
2026-05-05 18:59 47.54940 8.44392 3262 ft 160 kts 141°
2026-05-05 18:59 47.54152 8.45473 3081 ft 150 kts 141°
2026-05-05 19:00 47.53394 8.46511 2881 ft 146 kts 140°
2026-05-05 19:00 47.52665 8.47513 2685 ft 143 kts 140°
2026-05-05 19:00 47.51941 8.48516 2464 ft 141 kts 140°
2026-05-05 19:00 47.51224 8.49491 2273 ft 139 kts 140°
2026-05-05 19:01 47.50509 8.50445 2048 ft 137 kts 138°
2026-05-05 19:01 47.49817 8.51405 1843 ft 135 kts 139°
2026-05-05 19:01 47.49143 8.52335 1673 ft 133 kts 139°
2026-05-05 19:01 47.48469 8.53256 1521 ft 132 kts 140°
2026-05-05 19:02 47.47800 8.54161 1406 ft 124 kts 136°
2026-05-05 19:02 47.47269 8.54882 1388 ft 80 kts 136°
2026-05-05 19:02 47.46953 8.55308 1388 ft 44 kts 154°
2026-05-05 19:02 47.46742 8.55577 1394 ft 37 kts 143°
2026-05-05 19:03 47.46543 8.55696 1404 ft 25 kts 167°
2026-05-05 19:03 47.46422 8.55737 1396 ft 14 kts 168°
2026-05-05 19:03 47.46351 8.55799 1402 ft 7 kts 139°
2026-05-05 19:03 47.46332 8.55825 1400 ft 2 kts 136°
2026-05-05 19:04 47.46323 8.55838 1404 ft 4 kts 136°
2026-05-05 19:04 47.46283 8.55894 1406 ft 11 kts 137°
2026-05-05 19:04 47.46219 8.55980 1409 ft 12 kts 138°
2026-05-05 19:04 47.46140 8.55996 1406 ft 12 kts 185°
2026-05-05 19:05 47.46049 8.55984 1407 ft 14 kts 185°
2026-05-05 19:05 47.45940 8.55961 1407 ft 16 kts 203°
2026-05-05 19:05 47.45853 8.55907 1409 ft 7 kts 199°
2026-05-05 19:05 47.45830 8.55895 1413 ft 0 kts 198°
2026-05-05 19:08 47.45799 8.55881 1410 ft 12 kts 197°
2026-05-05 19:09 47.45690 8.55863 1410 ft 10 kts 186°
2026-05-05 19:09 47.45633 8.55828 1411 ft 6 kts 272°
2026-05-05 19:09 47.45647 8.55749 1413 ft 13 kts 274°
2026-05-05 19:09 47.45660 8.55556 1403 ft 23 kts 278°
2026-05-05 19:10 47.45660 8.55357 1405 ft 16 kts 224°
2026-05-05 19:10 47.45554 8.55387 1406 ft 16 kts 154°
2026-05-05 19:10 47.45452 8.55459 1404 ft 17 kts 154°
2026-05-05 19:10 47.45346 8.55530 1406 ft 17 kts 155°
2026-05-05 19:11 47.45270 8.55646 1410 ft 15 kts 94°
2026-05-05 19:11 47.45246 8.55759 1409 ft 6 kts 180°
2026-05-05 19:11 47.45220 8.55756 1413 ft 4 kts 181°
2026-05-05 19:11 47.45196 8.55752 1411 ft 2 kts 191°
2026-05-05 19:12 47.45186 8.55751 1412 ft 1 kts 185°
2026-05-05 19:12 47.45182 8.55750 1411 ft 2 kts 185°
2026-05-05 19:12 47.45180 8.55750 1410 ft 0 kts 185°